Terug naar catalogus

STARLINK-31331

ActiefCommunicatieVLEO
NORAD 58946·PAYLOAD·🇺🇸 United States

Gelanceerd Feb 10, 2024 vanaf Vandenberg Space Force Base

Loading…

Volgende Passages (komende 24 uur)

TLE

VersSource: CelesTrak SupGP

Epoch: Sep 14, 2026, 21:31 UTC

1 58946C 24027R   26257.89701389 -.00051493  00000+0 -16557-2 0  2570
2 58946  53.1570 149.2891 0001351  89.4086  59.0526 15.31730035    10

Volg STARLINK-31331 in realtime met AllMySat

Download on the App Store